Location: Ciochowice
(50.4289°N, 18.5217°E)
Time: 03:24:28
(UTC+01:00)

ISS - Pass Details

Date: 31 January 2019
Orbit: 403 x 411 km, 51.6° (Epoch: 17 February)

Event Time Altitude Azimuth Distance (km) Brightness Sun altitude
Rises 18:10:40 0° 271° (W) 2,335 1.8 -15.0°
Reaches altitude 10° 18:12:45 10° 274° (W) 1,476 0.3 -15.4°
Maximum altitude 18:16:03 69° 358° (N) 444 -3.8 -15.9°
Enters shadow 18:17:03 41° 69° (ENE) 614 -3.4 -16.0°
